Terug naar catalogus

STARLINK-36140

ActiefCommunicatieVLEO
NORAD 67034·PAYLOAD·🇺🇸 United States

Gelanceerd Dec 11, 2025 vanaf Cape Canaveral Space Force Station

Loading…

Volgende Passages (komende 24 uur)

TLE

VersSource: CelesTrak SupGP

Epoch: Sep 14, 2026, 23:02 UTC

1 67034C 25294E   26257.96020833  .00033886  00000+0  12271-2 0  2574
2 67034  43.0003  49.4919 0001639 272.9141  30.6468 15.27567830    15

Volg STARLINK-36140 in realtime met AllMySat

Download on the App Store